Le Mars, IA

4:05 AM CDT on October 21, 2019 (GMT -0500)
Le Mars Municipal

Weather History for KLRJ - August, 2019

Change the Weather History Date:

Saturday, August 24, 2019

  Actual Average Record
Temperature  
Mean Temperature 68 °F -  
Max Temperature 75 °F 83 °F 93 °F (1978)
Min Temperature 60 °F 59 °F 44 °F (2015)
Cooling Degree Days 2    
Growing Degree Days 18 (Base 50)    
Moisture  
Dew Point 60 °F    
Average Humidity 80    
Maximum Humidity 94    
Minimum Humidity 61    
Precipitation  
Precipitation 0.00 in - - ()
Sea Level Pressure  
Sea Level Pressure 30.10 in    
Wind  
Wind Speed 11 mph (SE)    
Max Wind Speed 18 mph    
Max Gust Speed 26 mph    
Visibility 10 miles    
Events      
Averages and records for this station are not official NWS values.
T = Trace of Precipitation, MM = Missing Value Source: NWS Daily Summary

Daily Weather History Graph

Daily Weather History Graph

Search for Another Location

Airport or City:

Astronomy

Aug. 24, 2019 Rise Set
Actual Time 6:40 AM CDT 8:12 PM CDT
Civil Twilight 6:10 AM CDT 8:42 PM CDT
Nautical Twilight 5:34 AM CDT 9:18 PM CDT
Astronomical Twilight 4:56 AM CDT 9:56 PM CDT
Moon 12:31 AM CDT (8/24) 3:33 PM CDT (8/24)
Length of Visible Light 14h 31m
Length of Day
13h 32m
Last Quarter, 39% of the Moon is Illuminated
Aug 24
Last Quarter
Aug 30
New
Sep 5
First Quarter
Sep 13
Full
Sep 21
Last Quarter

Hourly Weather History & Observations

Time (CDT) Temp. Dew Point Humidity Pressure Visibility Wind Dir Wind Speed Gust Speed Precip Events Conditions
12:15 AM 64.4 °F 60.8 °F 88% 30.14 in 10.0 mi ESE 9.2 mph - N/A   Clear
12:35 AM 64.4 °F 60.8 °F 88% 30.15 in 10.0 mi SE 9.2 mph - N/A   Clear
12:55 AM 64.4 °F 60.8 °F 88% 30.15 in 10.0 mi SE 9.2 mph - N/A   Clear
1:15 AM 62.6 °F 60.8 °F 94% 30.15 in 10.0 mi SE 6.9 mph - N/A   Clear
1:35 AM 62.6 °F 60.8 °F 94% 30.15 in 10.0 mi ESE 9.2 mph - N/A   Clear
1:55 AM 62.6 °F 60.8 °F 94% 30.14 in 10.0 mi ESE 9.2 mph - N/A   Clear
2:15 AM 62.6 °F 60.8 °F 94% 30.14 in 10.0 mi SE 9.2 mph - N/A   Clear
2:35 AM 62.6 °F 60.8 °F 94% 30.14 in 10.0 mi SE 8.1 mph - N/A   Clear
2:55 AM 62.6 °F 59.0 °F 88% 30.14 in 10.0 mi SE 10.4 mph - N/A   Clear
3:15 AM 62.6 °F 59.0 °F 88% 30.14 in 10.0 mi SE 11.5 mph - N/A   Clear
3:35 AM 62.6 °F 59.0 °F 88% 30.14 in 10.0 mi ESE 10.4 mph 16.1 mph N/A   Clear
3:55 AM 62.6 °F 59.0 °F 88% 30.14 in 10.0 mi SE 11.5 mph 17.3 mph N/A   Clear
4:15 AM 60.8 °F 59.0 °F 94% 30.15 in 10.0 mi SE 10.4 mph - N/A   Clear
4:35 AM 60.8 °F 59.0 °F 94% 30.15 in 10.0 mi SE 6.9 mph - N/A   Clear
4:55 AM 60.8 °F 59.0 °F 94% 30.15 in 10.0 mi SE 6.9 mph - N/A   Clear
5:15 AM 60.8 °F 59.0 °F 94% 30.15 in 10.0 mi SE 9.2 mph - N/A   Clear
5:35 AM 60.8 °F 59.0 °F 94% 30.14 in 10.0 mi ESE 9.2 mph - N/A   Clear
5:55 AM 60.8 °F 59.0 °F 94% 30.14 in 10.0 mi ESE 9.2 mph - N/A   Clear
6:15 AM 60.8 °F 59.0 °F 94% 30.14 in 10.0 mi ESE 9.2 mph - N/A   Clear
6:35 AM 60.8 °F 59.0 °F 94% 30.14 in 10.0 mi ESE 9.2 mph 15.0 mph N/A   Clear
6:55 AM 60.8 °F 59.0 °F 94% 30.13 in 10.0 mi SE 11.5 mph - N/A   Clear
7:15 AM 60.8 °F 59.0 °F 94% 30.14 in 10.0 mi ESE 10.4 mph 16.1 mph N/A   Clear
7:35 AM 60.8 °F 57.2 °F 88% 30.14 in 10.0 mi ESE 13.8 mph 19.6 mph N/A   Clear
7:55 AM 62.6 °F 59.0 °F 88% 30.14 in 10.0 mi SE 11.5 mph - N/A   Clear
8:15 AM 62.6 °F 59.0 °F 88% 30.15 in 10.0 mi SE 11.5 mph 17.3 mph N/A   Clear
8:55 AM 64.4 °F 59.0 °F 83% 30.14 in 10.0 mi SE 11.5 mph 19.6 mph N/A   Clear
9:15 AM 64.4 °F 59.0 °F 83% 30.14 in 10.0 mi SE 11.5 mph - N/A   Clear
9:35 AM 66.2 °F 59.0 °F 78% 30.14 in 10.0 mi SE 13.8 mph - N/A   Partly Cloudy
9:55 AM 66.2 °F 59.0 °F 78% 30.14 in 10.0 mi SE 12.7 mph - N/A   Partly Cloudy
10:15 AM 68.0 °F 60.8 °F 78% 30.13 in 10.0 mi SE 9.2 mph - N/A   Partly Cloudy
10:35 AM 69.8 °F 60.8 °F 73% 30.13 in 10.0 mi SE 15.0 mph 21.9 mph N/A   Clear
10:55 AM 71.6 °F 60.8 °F 69% 30.13 in 10.0 mi SE 17.3 mph - N/A   Scattered Clouds
11:15 AM 71.6 °F 60.8 °F 69% 30.12 in 10.0 mi SSE 16.1 mph 23.0 mph N/A   Mostly Cloudy
11:55 AM 73.4 °F 60.8 °F 65% 30.10 in 10.0 mi SE 16.1 mph 24.2 mph N/A   Clear
12:15 PM 73.4 °F 60.8 °F 65% 30.10 in 10.0 mi SE 15.0 mph 25.3 mph N/A   Clear
12:35 PM 73.4 °F 60.8 °F 65% 30.10 in 10.0 mi SE 16.1 mph 25.3 mph N/A   Clear
12:55 PM 73.4 °F 62.6 °F 69% 30.09 in 10.0 mi SE 13.8 mph 25.3 mph N/A   Clear
1:15 PM 75.2 °F 60.8 °F 61% 30.08 in 10.0 mi SE 18.4 mph 26.5 mph N/A   Clear
1:35 PM 73.4 °F 60.8 °F 65% 30.08 in 10.0 mi SE 17.3 mph 25.3 mph N/A   Partly Cloudy
1:55 PM 73.4 °F 60.8 °F 65% 30.09 in 10.0 mi SE 18.4 mph 25.3 mph N/A   Partly Cloudy
2:15 PM 71.6 °F 60.8 °F 69% 30.09 in 10.0 mi SE 18.4 mph - N/A   Clear
2:35 PM 71.6 °F 60.8 °F 69% 30.08 in 10.0 mi ESE 16.1 mph - N/A   Clear
2:55 PM 73.4 °F 59.0 °F 61% 30.08 in 10.0 mi SE 17.3 mph 24.2 mph N/A   Clear
3:15 PM 71.6 °F 60.8 °F 69% 30.08 in 10.0 mi SE 17.3 mph - N/A   Clear
3:35 PM 73.4 °F 60.8 °F 65% 30.08 in 10.0 mi SE 16.1 mph - N/A   Partly Cloudy
3:55 PM 71.6 °F 60.8 °F 69% 30.08 in 10.0 mi SE 11.5 mph 19.6 mph N/A   Partly Cloudy
4:15 PM 71.6 °F 60.8 °F 69% 30.08 in 10.0 mi SE 11.5 mph - N/A   Clear
4:35 PM 71.6 °F 60.8 °F 69% 30.08 in 10.0 mi SE 10.4 mph - N/A   Clear
4:55 PM 71.6 °F 60.8 °F 69% 30.08 in 10.0 mi SE 10.4 mph 17.3 mph N/A   Clear
5:15 PM 71.6 °F 60.8 °F 69% 30.07 in 10.0 mi ESE 8.1 mph 13.8 mph N/A   Clear
5:35 PM 71.6 °F 60.8 °F 69% 30.07 in 10.0 mi ESE 8.1 mph - N/A   Clear
5:55 PM 71.6 °F 60.8 °F 69% 30.06 in 10.0 mi ESE 8.1 mph 15.0 mph N/A   Clear
6:15 PM 69.8 °F 60.8 °F 73% 30.06 in 10.0 mi ESE 10.4 mph - N/A   Clear
6:35 PM 69.8 °F 60.8 °F 73% 30.05 in 10.0 mi ESE 8.1 mph - N/A   Clear
6:55 PM 69.8 °F 60.8 °F 73% 30.05 in 10.0 mi ESE 8.1 mph - N/A   Clear
7:15 PM 69.8 °F 60.8 °F 73% 30.04 in 10.0 mi ESE 8.1 mph - N/A   Clear
7:35 PM 68.0 °F 60.8 °F 78% 30.04 in 10.0 mi ESE 10.4 mph - N/A   Clear
7:55 PM 68.0 °F 60.8 °F 78% 30.04 in 10.0 mi ESE 9.2 mph - N/A   Clear
8:15 PM 68.0 °F 60.8 °F 78% 30.03 in 10.0 mi East 11.5 mph - N/A   Clear
8:35 PM 68.0 °F 59.0 °F 73% 30.03 in 10.0 mi ESE 11.5 mph 18.4 mph N/A   Clear
8:55 PM 66.2 °F 59.0 °F 78% 30.04 in 10.0 mi ESE 11.5 mph - N/A   Clear
9:15 PM 66.2 °F 59.0 °F 78% 30.04 in 10.0 mi ESE 9.2 mph - N/A   Clear
9:35 PM 66.2 °F 59.0 °F 78% 30.05 in 10.0 mi ESE 8.1 mph 13.8 mph N/A   Partly Cloudy
9:55 PM 64.4 °F 60.8 °F 88% 30.06 in 10.0 mi SE 6.9 mph - N/A   Mostly Cloudy
10:35 PM 64.4 °F 60.8 °F 88% 30.05 in 10.0 mi ESE 8.1 mph - N/A   Overcast
10:55 PM 64.4 °F 60.8 °F 88% 30.05 in 10.0 mi ESE 9.2 mph - N/A   Overcast
11:15 PM 64.4 °F 60.8 °F 88% 30.05 in 10.0 mi ESE 8.1 mph - N/A   Overcast
11:35 PM 64.4 °F 60.8 °F 88% 30.04 in 10.0 mi ESE 9.2 mph - N/A   Overcast